Location: Estes Park
(40.3770°N, 105.5210°W)
Time: 20:56:21
(UTC-06:00)

Envisat - Pass Details

Date: 15 October 2017
Orbit: 764 x 766 km, 98.2° (Epoch: 21 October)

Event Time Altitude Azimuth Distance (km) Brightness Sun altitude
Exits shadow 19:23:15 14° 62° (ENE) 2,031 4.7 -12.5°
Maximum altitude 19:23:21 14° 61° (ENE) 2,031 4.7 -12.5°
Drops below altitude 10° 19:25:53 10° 31° (NNE) 2,304 5.2 -13.0°
Sets 19:29:16 0° 7° (N) 3,235 6.2 -13.6°
